Starlink 5751

operational
NORAD ID: 55576 Int'l Des: 2023-020 Owner: SPXS Country: US Constellation: starlink
LEOCIRCULAR

About Starlink 5751

Description loading...

Live Position

Loading 3D Globe...

Upcoming Passes

Altitude History

Altitude vs Time

uPlot chart will show altitude changes over time

Two-Line Element Set

1 55576U 23020H 26035.40407786 .00001762 00000-0 14541-3 0 9991
2 55576 43.0026 159.4024 0001246 266.9545 93.1155 15.02544574164215
Epoch: Feb 4, 2026 • Age: 14 hours

Current Status

Altitude 559.4 km
Velocity 7.58 km/s
Sub-Earth Point -4.34°S, 15.92°E
Launch Date Feb 12, 2023
Age 2.9 years
Type internet

Technical Details

Classification Payload
Mass 305.00 kg
Dry Mass 290.00 kg
Total Mass 305.00 kg
Length 0.20 m
Diameter 2.80 m
Span 9.00 m
Shape Box + pan
Manufacturer SPXS
Bus Type Starlink
Phase Status In Orbit
Owner/State SPXS/US

Large Constellations

Loading constellations...